Location: Cantaing
(50.1487°N, 3.1675°E)
Time: 06:10:07
(UTC+00:00)

Cosmos 44 - Pass Details

Date: 14 January 2026
Orbit: 570 x 780 km, 65.1° (Epoch: 10 February)

Event Time Altitude Azimuth Distance (km) Brightness Sun altitude
Exits shadow 05:06:29 30° 347° (NNW) 1,364 4.6 -24.1°
Maximum altitude 05:08:42 46° 41° (NE) 1,035 4.3 -23.7°
Drops below altitude 10° 05:13:53 10° 114° (ESE) 2,331 7.0 -22.9°
Sets 05:16:24 0° 120° (ESE) 3,255 7.9 -22.5°
